Location: Eastlake (historical)
(39.0077°N, 122.6678°W)
Time: 13:13:03
(UTC+00:00)

Cosmos 1606 - Pass Details

Date: 25 November 2020
Orbit: 503 x 527 km, 82.5° (Epoch: 25 January)

Event Time Altitude Azimuth Distance (km) Brightness Sun altitude
Exits shadow 14:05:22 14° 261° (W) 1,484 4.5 -11.6°
Drops below altitude 10° 14:06:50 10° 238° (WSW) 1,728 5.0 -11.3°
Sets 14:09:40 0° 214° (SW) 2,602 6.1 -10.8°
